Starlink 30900

operational
NORAD ID: 58423 Int'l Des: 2023-180 Owner: SPXS Country: US Constellation: starlink
LEOCIRCULAR

Über Starlink 30900

Beschreibung wird geladen...

Live-Position

3D-Globus wird geladen...

Nächste Überflüge

Höhenverlauf

Altitude vs Time

uPlot chart will show altitude changes over time

Zweizeiliger Elementsatz

1 58423U 23180X 26062.12567870 .00054525 00000-0 20020-2 0 9995
2 58423 43.0004 89.4258 0001139 162.0173 198.0719 15.27155802126511
Epoch: 3. März 2026 • Age: 19 hours

Aktueller Status

Höhe 486.0 km
Geschwindigkeit 7.63 km/s
Subsatellitenpunkt 36.35°N, 51.2°E
Startdatum 22. Nov. 2023
Alter 2.2 years
Typ internet

Technische Details

Klassifizierung Payload
Masse 730.00 kg
Trockenmasse 700.00 kg
Gesamtmasse 730.00 kg
Länge 0.30 m
Durchmesser 4.10 m
Spannweite 29.00 m
Form Box + pan
Hersteller SPXS
Bus-Typ Starlink V2M
Phasenstatus In Orbit
Besitzer/Staat SPXS/US

Große Konstellationen

Loading constellations...